#timestamp,LO_Frequency,Hit,StdDev 
1518573615.0,286046989.3,N
1518573615.9,286046989.3,N
1518573635.8,286046988.9,N
1518573655.6,286046988.6,N
1518573675.4,286046986.9,Y
1518573695.3,286046997.1,P
1518573715.1,286046997.3,N
1518573735.9,286046997.3,N
1518573755.7,286046998.5,N
1518573775.5,286047002.2,N
1518573795.4,286047003.1,N
1518573815.2,286047007.5,N
1518573835.0,286047007.2,N
1518573835.9,286047007.2,N
1518573855.8,286047006.4,N
1518573875.6,286047006.1,N
1518573895.5,286047007.6,N
1518573915.3,286047006.4,N
1518573935.1,286047009.2,N
1518573955.9,286047006.6,N
1518573975.7,286047006.9,N
1518573995.6,286047006.4,N
1518574015.4,286047006.5,N
1518574035.2,286047009.2,N
1518574055.1,286047008.5,N
1518574056.0,286047008.5,N
1518574075.8,286047008.8,N
1518574095.6,286047006.7,N
1518574115.5,286047005.0,N
1518574135.3,286047005.3,N
1518574155.2,286047005.7,N
1518574175.9,286047005.7,N
1518574195.7,286047003.2,N
1518574215.6,286047005.9,N
1518574235.4,286047005.2,N
1518574255.3,286047007.3,N
1518574275.1,286047005.4,N
1518574276.0,286047005.4,N
1518574295.8,286047006.0,N
1518574315.7,286047003.0,N
1518574335.5,286047005.5,Y
1518574355.4,286046999.9,P
1518574375.2,286047004.4,N
1518574395.0,286047005.2,N
1518574395.9,286047005.2,N
1518574445.8,286046999.8,E
1518574455.7,286047000.6,N
1518574475.6,286046998.3,P
1518574495.4,286047011.9,P
1518574515.2,286047000.3,N
1518574535.1,286047000.3,N
1518574536.0,286047000.3,N
1518574555.8,286047001.9,N
1518574575.7,286047000.1,N
1518574595.5,286047001.6,N
1518574615.3,286047002.0,N
1518574635.2,286046998.8,N
1518574655.9,286046996.5,N
1518574675.7,286046997.4,N
1518574695.6,286046998.9,N
1518574715.4,286046998.8,N
1518574735.3,286046999.5,N
1518574755.1,286046997.1,N
1518574756.0,286046997.1,N
1518574775.8,286046996.8,N
1518574795.7,286046999.2,N
1518574815.5,286046996.7,N
1518574835.3,286046997.7,N
1518574855.2,286046995.2,N
1518574875.0,286046997.2,N
1518574875.9,286046997.2,N
1518574895.8,286046997.2,N
1518574915.6,286046998.3,N
1518574935.4,286046998.4,N
1518574955.3,286046998.5,N
1518574975.1,286047002.8,N
1518574995.9,286047000.6,N
1518575015.7,286047002.4,N
1518575035.5,286047003.9,N
1518575055.4,286047002.5,N
1518575075.2,286047004.4,N
1518575095.0,286047005.5,N
1518575095.9,286047005.5,N
1518575115.8,286047003.6,N
1518575135.6,286047003.7,N
1518575155.5,286047002.0,N
1518575175.3,286047000.5,N
1518575195.1,286047000.2,N
1518575215.9,286047002.2,N
1518575235.7,286047002.1,N
1518575255.6,286047001.6,N
1518575275.4,286047004.4,N
1518575295.2,286047002.3,N
1518575315.1,286047000.2,N
1518575316.0,286047000.2,N
1518575335.8,286047002.1,N
1518575355.6,286047001.8,N
1518575375.5,286047001.3,N
1518575395.3,286047004.4,N
1518575415.2,286047002.1,N
1518575435.9,286047004.2,N
1518575455.7,286047005.3,N
1518575475.6,286047007.4,Y
1518575495.4,286047005.3,P
1518575515.3,286047004.9,P
1518575565.1,286047004.9,E
1518575575.0,286047003.7,N
1518575575.9,286047003.7,P
1518575595.8,286047002.4,P
1518575615.6,286047003.9,Y
1518575635.4,286046998.2,P
1518575655.3,286047001.9,N
1518575675.1,286047002.1,N
1518575695.8,286047001.7,N
1518575715.7,286047002.4,N
1518575735.5,286047002.2,N
1518575755.4,286047002.2,N
1518575775.2,286047002.2,N
1518575795.0,286047001.6,N
1518575795.9,286047001.6,N
1518575815.8,286047004.1,Y
1518575835.6,286047001.6,P
1518575855.5,286047001.4,P
1518575875.3,286047001.9,P
1518575895.1,286047000.1,N
1518575915.9,286047002.4,Y
1518575935.7,286047002.5,P
1518575955.5,286046999.7,N
1518575975.4,286047002.8,N
1518575995.2,286047002.4,N
1518576015.1,286047002.3,N
1518576016.0,286047002.3,N
1518576035.8,286047004.0,Y
1518576055.6,286047003.6,P
1518576075.5,286047005.6,P
1518576095.3,286047005.9,P
1518576115.2,286047004.2,N
1518576135.9,286047002.0,N
1518576155.7,286047000.1,N
1518576205.6,286046998.1,E
1518576215.5,286046999.8,N
1518576235.4,286047002.9,P
1518576255.2,286047001.3,N
1518576275.0,286047001.8,N
1518576275.9,286047001.8,N
1518576295.8,286046999.7,N
1518576315.6,286047002.6,N
1518576335.4,286047001.9,N
1518576355.3,286047002.6,N
1518576375.1,286047001.7,N
1518576395.9,286047003.5,Y
1518576415.7,286047002.1,P
1518576435.5,286047004.4,P
1518576455.4,286047003.5,N
1518576475.2,286047002.3,N
1518576495.1,286047000.1,N
1518576496.0,286047000.1,N
1518576515.8,286046999.8,N
1518576535.6,286047003.6,N
1518576555.5,286047005.5,Y
1518576575.3,286047002.7,P
1518576595.1,286047002.3,P
1518576615.9,286047002.2,P
1518576635.7,286047000.1,N
1518576655.6,286047000.9,N
1518576675.4,286047000.7,N
1518576695.2,286046998.8,N
1518576715.1,286046998.9,N
1518576716.0,286046998.9,N
1518576735.8,286046996.5,N
1518576755.7,286046999.5,N
1518576775.5,286046997.0,N
1518576795.3,286046997.3,N
1518576815.2,286046999.5,N
1518576835.9,286046996.9,N
1518576855.7,286046995.3,N
1518576875.6,286046998.3,N
1518576895.4,286047000.4,N
1518576915.3,286047000.6,N
1518576935.1,286047000.9,N
1518576936.0,286047000.9,N
1518576955.8,286046999.0,N
1518576975.7,286047001.1,N
1518576995.5,286047000.1,N
1518577015.3,286046998.8,N
1518577035.2,286047000.8,N
1518577055.0,286047002.5,N
1518577055.9,286047002.5,N
1518577075.8,286047001.0,N
1518577095.6,286047004.3,N
1518577115.4,286047004.2,N
1518577135.3,286047003.7,N
1518577155.1,286047004.2,N
1518577175.8,286047001.4,N
1518577195.7,286047001.9,N
